FFT1413 KEWR-KMDW

Flight info

Callsign FFT1413
Flight time 1h 47m
Altitude 38000
Route NEWEL J60 DJB ASHEN PANGG7
Aircraft A20N/M-SDE2E3FGHIRWXY/LB1

Departure

Time 2026-04-25 22:35
Airport Newark Liberty International Airport (KEWR)

Arrival

Time 2026-04-26 00:23
Airport Chicago Midway International Airport (KMDW)
Time Latitude Longitude Altitude Speed Heading
2026-04-25 22:16 40.68745 -74.17731 12 ft 0 kts 30°
2026-04-25 22:25 40.68745 -74.17732 11 ft 0 kts 30°
2026-04-25 22:25 40.68737 -74.17738 12 ft 2 kts 29°
2026-04-25 22:26 40.68724 -74.17748 12 ft 2 kts 30°
2026-04-25 22:26 40.68711 -74.17757 12 ft 2 kts 29°
2026-04-25 22:26 40.68697 -74.17767 12 ft 2 kts 29°
2026-04-25 22:26 40.68686 -74.17780 12 ft 2 kts 66°
2026-04-25 22:27 40.68683 -74.17800 12 ft 2 kts 98°
2026-04-25 22:27 40.68685 -74.17810 12 ft 1 kts 117°
2026-04-25 22:27 40.68688 -74.17817 12 ft 0 kts 115°
2026-04-25 22:30 40.68686 -74.17811 12 ft 1 kts 115°
2026-04-25 22:30 40.68677 -74.17787 12 ft 3 kts 115°
2026-04-25 22:30 40.68663 -74.17746 12 ft 6 kts 115°
2026-04-25 22:30 40.68649 -74.17709 12 ft 7 kts 115°
2026-04-25 22:31 40.68615 -74.17612 12 ft 10 kts 115°
2026-04-25 22:31 40.68584 -74.17522 12 ft 11 kts 116°
2026-04-25 22:31 40.68513 -74.17503 12 ft 12 kts 187°
2026-04-25 22:31 40.68430 -74.17533 12 ft 13 kts 208°
2026-04-25 22:32 40.68343 -74.17592 12 ft 14 kts 206°
2026-04-25 22:32 40.68248 -74.17651 12 ft 16 kts 205°
2026-04-25 22:32 40.68141 -74.17714 13 ft 17 kts 205°
2026-04-25 22:32 40.68030 -74.17785 13 ft 18 kts 205°
2026-04-25 22:33 40.67916 -74.17862 13 ft 18 kts 216°
2026-04-25 22:33 40.67798 -74.17941 13 ft 19 kts 204°
2026-04-25 22:33 40.67678 -74.18008 13 ft 16 kts 201°
2026-04-25 22:33 40.67602 -74.18044 14 ft 11 kts 192°
2026-04-25 22:34 40.67557 -74.17974 14 ft 10 kts 94°
2026-04-25 22:34 40.67606 -74.17915 14 ft 10 kts 24°
2026-04-25 22:34 40.67794 -74.17795 14 ft 64 kts 27°
2026-04-25 22:34 40.68400 -74.17403 13 ft 128 kts 22°
2026-04-25 22:35 40.69359 -74.16808 141 ft 166 kts 29°
2026-04-25 22:35 40.70383 -74.16144 778 ft 166 kts 33°
2026-04-25 22:35 40.71240 -74.15189 1444 ft 163 kts 52°
2026-04-25 22:35 40.72110 -74.14175 2062 ft 173 kts 42°
2026-04-25 22:36 40.73092 -74.13177 2539 ft 189 kts 42°
2026-04-25 22:36 40.74187 -74.12053 3019 ft 207 kts 42°
2026-04-25 22:36 40.75380 -74.10872 3466 ft 226 kts 34°
2026-04-25 22:36 40.76960 -74.10297 3872 ft 252 kts 356°
2026-04-25 22:37 40.78640 -74.11145 4329 ft 271 kts 319°
2026-04-25 22:37 40.79670 -74.13167 5034 ft 272 kts 282°
2026-04-25 22:37 40.79840 -74.15578 6023 ft 265 kts 268°
2026-04-25 22:37 40.79869 -74.17964 7018 ft 263 kts 269°
2026-04-25 22:38 40.79973 -74.20361 7936 ft 263 kts 272°
2026-04-25 22:38 40.80151 -74.22732 8795 ft 264 kts 274°
2026-04-25 22:38 40.80383 -74.25128 9608 ft 267 kts 276°
2026-04-25 22:38 40.80650 -74.27525 10351 ft 271 kts 276°
2026-04-25 22:39 40.80950 -74.30048 10827 ft 286 kts 277°
2026-04-25 22:39 40.81278 -74.32668 11051 ft 294 kts 278°
2026-04-25 22:39 40.81623 -74.35340 11571 ft 301 kts 278°
2026-04-25 22:39 40.81979 -74.38063 12432 ft 300 kts 278°
2026-04-25 22:40 40.82332 -74.40749 13191 ft 303 kts 278°
2026-04-25 22:40 40.82515 -74.43520 13902 ft 305 kts 267°
2026-04-25 22:40 40.82306 -74.46307 14510 ft 311 kts 263°
2026-04-25 22:40 40.82023 -74.49155 15151 ft 316 kts 263°
2026-04-25 22:41 40.81749 -74.52017 15806 ft 319 kts 264°
2026-04-25 22:41 40.81485 -74.54916 16469 ft 322 kts 265°
2026-04-25 22:41 40.81229 -74.57870 17073 ft 326 kts 264°
2026-04-25 22:41 40.80976 -74.60854 17663 ft 330 kts 265°
2026-04-25 22:42 40.80725 -74.63851 18238 ft 334 kts 265°
2026-04-25 22:42 40.80475 -74.66912 18859 ft 336 kts 265°
2026-04-25 22:42 40.80226 -74.69966 19449 ft 339 kts 265°
2026-04-25 22:42 40.79974 -74.73065 20008 ft 343 kts 265°
2026-04-25 22:43 40.79719 -74.76193 20547 ft 346 kts 265°
2026-04-25 22:43 40.79461 -74.79349 21092 ft 349 kts 265°
2026-04-25 22:43 40.79200 -74.82527 21589 ft 353 kts 265°
2026-04-25 22:43 40.78933 -74.85751 22106 ft 356 kts 264°
2026-04-25 22:44 40.78666 -74.88988 22597 ft 359 kts 265°
2026-04-25 22:44 40.78394 -74.92256 23062 ft 363 kts 265°
2026-04-25 22:44 40.78118 -74.95567 23516 ft 366 kts 264°
2026-04-25 22:44 40.77842 -74.98904 24039 ft 368 kts 264°
2026-04-25 22:45 40.77559 -75.02266 24577 ft 369 kts 264°
2026-04-25 22:45 40.77279 -75.05618 25125 ft 369 kts 264°
2026-04-25 22:45 40.76998 -75.08956 25646 ft 370 kts 264°
2026-04-25 22:45 40.76712 -75.12331 26120 ft 372 kts 264°
2026-04-25 22:46 40.76423 -75.15713 26607 ft 373 kts 264°
2026-04-25 22:46 40.76133 -75.19129 27100 ft 374 kts 263°
2026-04-25 22:46 40.75843 -75.22519 27559 ft 375 kts 263°
2026-04-25 22:46 40.75552 -75.25920 28009 ft 376 kts 263°
2026-04-25 22:47 40.75257 -75.29339 28400 ft 377 kts 264°
2026-04-25 22:47 40.74961 -75.32740 28811 ft 379 kts 263°
2026-04-25 22:47 40.74663 -75.36166 29106 ft 375 kts 263°
2026-04-25 22:47 40.74366 -75.39593 29055 ft 375 kts 263°
2026-04-25 22:48 40.74066 -75.43017 28919 ft 376 kts 263°
2026-04-25 22:48 40.73765 -75.46430 28754 ft 376 kts 263°
2026-04-25 22:48 40.73468 -75.49828 28600 ft 376 kts 263°
2026-04-25 22:48 40.73166 -75.53249 28459 ft 376 kts 263°
2026-04-25 22:49 40.72757 -75.57867 28329 ft 376 kts 263°
2026-04-25 22:49 40.72449 -75.61310 28450 ft 380 kts 263°
2026-04-25 22:49 40.72144 -75.64733 28808 ft 381 kts 263°
2026-04-25 22:50 40.71831 -75.68229 29234 ft 381 kts 263°
2026-04-25 22:50 40.71521 -75.71697 29593 ft 383 kts 262°
2026-04-25 22:50 40.71208 -75.75167 29954 ft 385 kts 262°
2026-04-25 22:50 40.70891 -75.78659 30336 ft 386 kts 262°
2026-04-25 22:51 40.70576 -75.82138 30712 ft 387 kts 262°
2026-04-25 22:51 40.70255 -75.85668 31069 ft 388 kts 262°
2026-04-25 22:51 40.69935 -75.89174 31441 ft 389 kts 262°
2026-04-25 22:51 40.69608 -75.92715 31923 ft 386 kts 262°
2026-04-25 22:52 40.69289 -75.96171 32412 ft 383 kts 262°
2026-04-25 22:52 40.68969 -75.99657 32899 ft 380 kts 262°
2026-04-25 22:52 40.68651 -76.03075 33374 ft 376 kts 262°
2026-04-25 22:52 40.68444 -76.05308 33660 ft 375 kts 262°
2026-04-25 22:53 40.68020 -76.09834 34226 ft 371 kts 261°
2026-04-25 22:53 40.67706 -76.13163 34632 ft 369 kts 262°
2026-04-25 22:53 40.67459 -76.16509 34974 ft 368 kts 264°
2026-04-25 22:53 40.67331 -76.19864 35283 ft 367 kts 267°
2026-04-25 22:54 40.67329 -76.23234 35562 ft 368 kts 269°
2026-04-25 22:54 40.67453 -76.26597 35833 ft 368 kts 271°
2026-04-25 22:54 40.67698 -76.29904 36089 ft 369 kts 274°
2026-04-25 22:54 40.68070 -76.33232 36351 ft 369 kts 276°
2026-04-25 22:55 40.68550 -76.36574 36617 ft 368 kts 277°
2026-04-25 22:55 40.69035 -76.39866 36819 ft 368 kts 277°
2026-04-25 22:55 40.69520 -76.43153 37015 ft 368 kts 277°
2026-04-25 22:55 40.70014 -76.46490 37208 ft 368 kts 277°
2026-04-25 22:56 40.70499 -76.49764 37385 ft 368 kts 277°
2026-04-25 22:56 40.70986 -76.53062 37507 ft 370 kts 278°
2026-04-25 22:56 40.71477 -76.56390 37616 ft 371 kts 277°
2026-04-25 22:56 40.71969 -76.59715 37746 ft 372 kts 277°
2026-04-25 22:57 40.72462 -76.63071 37881 ft 372 kts 278°
2026-04-25 22:57 40.72952 -76.66409 37992 ft 373 kts 277°
2026-04-25 22:57 40.73937 -76.73122 37860 ft 374 kts 277°
2026-04-25 22:58 40.74919 -76.79840 37985 ft 375 kts 277°
2026-04-25 22:58 40.75898 -76.86584 37993 ft 376 kts 277°
2026-04-25 22:59 40.76874 -76.93323 37993 ft 375 kts 277°
2026-04-25 22:59 40.77848 -77.00082 37984 ft 376 kts 277°
2026-04-25 23:00 40.78822 -77.06867 37981 ft 376 kts 277°
2026-04-25 23:00 40.79780 -77.13583 37974 ft 376 kts 277°
2026-04-25 23:01 40.80744 -77.20363 37974 ft 377 kts 277°
2026-04-25 23:01 40.81707 -77.27178 37968 ft 377 kts 277°
2026-04-25 23:02 40.82659 -77.33935 37962 ft 378 kts 276°
2026-04-25 23:02 40.83615 -77.40764 37962 ft 380 kts 277°
2026-04-25 23:03 40.84570 -77.47592 37960 ft 380 kts 277°
2026-04-25 23:03 40.85519 -77.54421 37959 ft 380 kts 276°
2026-04-25 23:04 40.86309 -77.60138 37957 ft 381 kts 276°
2026-04-25 23:04 40.87415 -77.68173 37954 ft 382 kts 276°
2026-04-25 23:05 40.88361 -77.75082 37954 ft 382 kts 276°
2026-04-25 23:05 40.89299 -77.81940 37958 ft 382 kts 276°
2026-04-25 23:06 40.90234 -77.88831 37952 ft 382 kts 276°
2026-04-25 23:06 40.91166 -77.95750 37949 ft 383 kts 276°
2026-04-25 23:07 40.92073 -78.02647 37942 ft 383 kts 276°
2026-04-25 23:07 40.92934 -78.09598 37940 ft 383 kts 275°
2026-04-25 23:08 40.93785 -78.16517 37941 ft 383 kts 275°
2026-04-25 23:08 40.94636 -78.23445 37932 ft 383 kts 275°
2026-04-25 23:09 40.95481 -78.30384 37925 ft 384 kts 275°
2026-04-25 23:09 40.96322 -78.37319 37932 ft 384 kts 276°
2026-04-25 23:10 40.97166 -78.44276 37928 ft 384 kts 276°
2026-04-25 23:10 40.98010 -78.51245 37935 ft 385 kts 276°
2026-04-25 23:11 40.98845 -78.58194 37924 ft 385 kts 276°
2026-04-25 23:11 40.99679 -78.65183 37922 ft 385 kts 275°
2026-04-25 23:12 41.00506 -78.72177 37916 ft 385 kts 275°
2026-04-25 23:12 41.01330 -78.79163 37919 ft 385 kts 275°
2026-04-25 23:13 41.02152 -78.86168 37918 ft 386 kts 275°
2026-04-25 23:13 41.02966 -78.93138 37913 ft 386 kts 275°
2026-04-25 23:14 41.03778 -79.00133 37921 ft 386 kts 275°
2026-04-25 23:14 41.04590 -79.07200 37920 ft 388 kts 275°
2026-04-25 23:15 41.05396 -79.14218 37920 ft 387 kts 275°
2026-04-25 23:15 41.06198 -79.21248 37926 ft 387 kts 275°
2026-04-25 23:16 41.06998 -79.28318 37927 ft 388 kts 276°
2026-04-25 23:16 41.07794 -79.35371 37930 ft 388 kts 276°
2026-04-25 23:17 41.08585 -79.42407 37940 ft 389 kts 276°
2026-04-25 23:17 41.09374 -79.49479 37935 ft 389 kts 276°
2026-04-25 23:18 41.10164 -79.56599 37930 ft 388 kts 276°
2026-04-25 23:18 41.10939 -79.63638 37936 ft 388 kts 275°
2026-04-25 23:19 41.11718 -79.70758 37936 ft 390 kts 275°
2026-04-25 23:19 41.12489 -79.77848 37938 ft 390 kts 275°
2026-04-25 23:20 41.13259 -79.84946 37939 ft 390 kts 275°
2026-04-25 23:20 41.14023 -79.92057 37934 ft 391 kts 275°
2026-04-25 23:21 41.14786 -79.99207 37947 ft 392 kts 275°
2026-04-25 23:21 41.15545 -80.06327 37940 ft 391 kts 275°
2026-04-25 23:22 41.16297 -80.13468 37939 ft 392 kts 276°
2026-04-25 23:23 41.17429 -80.24223 37958 ft 392 kts 275°
2026-04-25 23:23 41.18167 -80.31324 37961 ft 391 kts 275°
2026-04-25 23:24 41.18906 -80.38479 37963 ft 392 kts 276°
2026-04-25 23:24 41.19645 -80.45654 37980 ft 392 kts 276°
2026-04-25 23:25 41.20375 -80.52777 37991 ft 392 kts 276°
2026-04-25 23:25 41.21104 -80.59923 37995 ft 393 kts 276°
2026-04-25 23:26 41.21838 -80.67192 37995 ft 394 kts 275°
2026-04-25 23:26 41.22558 -80.74367 37996 ft 394 kts 275°
2026-04-25 23:27 41.23273 -80.81548 37987 ft 394 kts 275°
2026-04-25 23:27 41.23985 -80.88747 37990 ft 394 kts 275°
2026-04-25 23:28 41.24692 -80.95948 37998 ft 395 kts 275°
2026-04-25 23:28 41.25397 -81.03154 37996 ft 395 kts 275°
2026-04-25 23:29 41.26096 -81.10376 37998 ft 395 kts 275°
2026-04-25 23:29 41.26792 -81.17600 38004 ft 395 kts 276°
2026-04-25 23:30 41.27484 -81.24833 38012 ft 396 kts 276°
2026-04-25 23:30 41.28172 -81.32075 38010 ft 396 kts 276°
2026-04-25 23:31 41.28852 -81.39280 38012 ft 396 kts 276°
2026-04-25 23:31 41.29532 -81.46540 38015 ft 396 kts 276°
2026-04-25 23:32 41.30202 -81.53767 38021 ft 396 kts 276°
2026-04-25 23:32 41.30877 -81.61048 38019 ft 398 kts 276°
2026-04-25 23:33 41.31556 -81.68410 38017 ft 398 kts 275°
2026-04-25 23:33 41.32218 -81.75671 38020 ft 399 kts 275°
2026-04-25 23:34 41.32884 -81.83023 38019 ft 399 kts 275°
2026-04-25 23:34 41.33537 -81.90310 38028 ft 400 kts 276°
2026-04-25 23:35 41.34189 -81.97634 38027 ft 400 kts 276°
2026-04-25 23:35 41.34836 -82.04955 38032 ft 399 kts 275°
2026-04-25 23:36 41.35476 -82.12267 38038 ft 399 kts 276°
2026-04-25 23:36 41.36028 -82.19601 38049 ft 398 kts 274°
2026-04-25 23:37 41.36467 -82.26930 38044 ft 399 kts 274°
2026-04-25 23:37 41.36899 -82.34255 38043 ft 399 kts 274°
2026-04-25 23:38 41.37324 -82.41573 38048 ft 398 kts 274°
2026-04-25 23:38 41.37748 -82.48920 38043 ft 399 kts 274°
2026-04-25 23:39 41.38164 -82.56245 38040 ft 399 kts 274°
2026-04-25 23:39 41.38579 -82.63592 38043 ft 399 kts 274°
2026-04-25 23:40 41.38989 -82.70963 38046 ft 399 kts 273°
2026-04-25 23:40 41.39394 -82.78319 38045 ft 399 kts 274°
2026-04-25 23:41 41.39793 -82.85651 38044 ft 399 kts 273°
2026-04-25 23:41 41.40185 -82.92971 38049 ft 399 kts 274°
2026-04-25 23:42 41.40577 -83.00355 38050 ft 399 kts 274°
2026-04-25 23:42 41.40962 -83.07696 38038 ft 399 kts 273°
2026-04-25 23:43 41.41344 -83.15064 38052 ft 398 kts 274°
2026-04-25 23:43 41.41717 -83.22373 38054 ft 397 kts 274°
2026-04-25 23:44 41.42084 -83.29651 38053 ft 397 kts 274°
2026-04-25 23:44 41.42451 -83.36985 38049 ft 396 kts 274°
2026-04-25 23:45 41.42810 -83.44280 38053 ft 397 kts 274°
2026-04-25 23:45 41.43164 -83.51588 38056 ft 397 kts 274°
2026-04-25 23:46 41.43517 -83.58935 38054 ft 397 kts 274°
2026-04-25 23:46 41.43864 -83.66266 38048 ft 397 kts 273°
2026-04-25 23:47 41.44207 -83.73606 38052 ft 397 kts 273°
2026-04-25 23:47 41.44542 -83.80919 38050 ft 397 kts 274°
2026-04-25 23:48 41.44876 -83.88267 38049 ft 397 kts 273°
2026-04-25 23:48 41.45203 -83.95566 38045 ft 397 kts 274°
2026-04-25 23:49 41.45526 -84.02869 38054 ft 396 kts 274°
2026-04-25 23:49 41.45844 -84.10169 38052 ft 397 kts 274°
2026-04-25 23:50 41.46158 -84.17508 38057 ft 397 kts 273°
2026-04-25 23:50 41.46466 -84.24822 38050 ft 397 kts 273°
2026-04-25 23:51 41.46770 -84.32152 38049 ft 397 kts 273°
2026-04-25 23:51 41.47069 -84.39487 38038 ft 398 kts 274°
2026-04-25 23:52 41.47365 -84.46851 38046 ft 398 kts 274°
2026-04-25 23:52 41.47654 -84.54172 38037 ft 398 kts 274°
2026-04-25 23:53 41.47940 -84.61580 37479 ft 402 kts 274°
2026-04-25 23:53 41.48080 -84.65256 36835 ft 402 kts 273°
2026-04-25 23:53 41.48230 -84.68984 36227 ft 402 kts 274°
2026-04-25 23:53 41.48380 -84.72698 35629 ft 405 kts 274°
2026-04-25 23:54 41.48532 -84.76448 34963 ft 409 kts 275°
2026-04-25 23:54 41.48683 -84.80240 34235 ft 414 kts 275°
2026-04-25 23:54 41.48836 -84.84045 33500 ft 415 kts 275°
2026-04-25 23:54 41.48989 -84.87885 32819 ft 416 kts 275°
2026-04-25 23:55 41.49139 -84.91743 32147 ft 416 kts 275°
2026-04-25 23:55 41.49287 -84.95538 31476 ft 416 kts 275°
2026-04-25 23:55 41.49434 -84.99383 30778 ft 416 kts 275°
2026-04-25 23:55 41.49579 -85.03236 30080 ft 417 kts 275°
2026-04-25 23:56 41.49724 -85.07100 29378 ft 418 kts 275°
2026-04-25 23:56 41.49867 -85.10889 28865 ft 414 kts 275°
2026-04-25 23:56 41.50008 -85.14736 28362 ft 410 kts 275°
2026-04-25 23:56 41.50145 -85.18508 27857 ft 407 kts 275°
2026-04-25 23:57 41.50277 -85.22207 27367 ft 404 kts 275°
2026-04-25 23:57 41.50411 -85.25946 26878 ft 401 kts 274°
2026-04-25 23:57 41.50541 -85.29650 26398 ft 398 kts 274°
2026-04-25 23:57 41.50667 -85.33289 25930 ft 395 kts 274°
2026-04-25 23:58 41.50792 -85.36943 25462 ft 393 kts 274°
2026-04-25 23:58 41.50915 -85.40531 24991 ft 391 kts 274°
2026-04-25 23:58 41.51038 -85.44144 24522 ft 389 kts 274°
2026-04-25 23:58 41.51158 -85.47710 24108 ft 385 kts 274°
2026-04-25 23:59 41.51275 -85.51239 23990 ft 379 kts 274°
2026-04-25 23:59 41.51392 -85.54750 23459 ft 382 kts 274°
2026-04-25 23:59 41.51509 -85.58279 22535 ft 391 kts 274°
2026-04-25 23:59 41.51627 -85.61928 21764 ft 395 kts 273°
2026-04-26 00:00 41.51716 -85.65540 21218 ft 393 kts 272°
2026-04-26 00:00 41.51792 -85.69183 20677 ft 390 kts 272°
2026-04-26 00:00 41.51864 -85.72808 20175 ft 388 kts 272°
2026-04-26 00:00 41.51933 -85.76334 19644 ft 385 kts 271°
2026-04-26 00:01 41.52002 -85.79896 19154 ft 382 kts 271°
2026-04-26 00:01 41.52071 -85.83411 18660 ft 380 kts 271°
2026-04-26 00:01 41.52139 -85.86919 18160 ft 378 kts 271°
2026-04-26 00:01 41.52208 -85.90414 17694 ft 376 kts 271°
2026-04-26 00:02 41.52271 -85.93886 17200 ft 374 kts 271°
2026-04-26 00:02 41.52333 -85.97323 16702 ft 372 kts 271°
2026-04-26 00:02 41.52394 -86.00753 16218 ft 370 kts 271°
2026-04-26 00:02 41.52455 -86.04133 15736 ft 367 kts 272°
2026-04-26 00:03 41.52514 -86.07531 15279 ft 364 kts 271°
2026-04-26 00:03 41.52524 -86.10863 14833 ft 361 kts 270°
2026-04-26 00:03 41.52505 -86.14203 14397 ft 358 kts 270°
2026-04-26 00:03 41.52484 -86.17507 13959 ft 354 kts 270°
2026-04-26 00:04 41.52463 -86.20728 13527 ft 351 kts 270°
2026-04-26 00:04 41.52443 -86.23994 13060 ft 349 kts 270°
2026-04-26 00:04 41.52425 -86.27171 12645 ft 346 kts 270°
2026-04-26 00:04 41.52410 -86.30386 12209 ft 343 kts 270°
2026-04-26 00:05 41.52391 -86.33513 11769 ft 341 kts 270°
2026-04-26 00:05 41.52369 -86.36654 11334 ft 339 kts 270°
2026-04-26 00:05 41.52348 -86.39784 10915 ft 337 kts 270°
2026-04-26 00:05 41.52328 -86.42883 10747 ft 327 kts 270°
2026-04-26 00:06 41.52308 -86.45863 10609 ft 322 kts 270°
2026-04-26 00:06 41.52287 -86.48849 10446 ft 318 kts 270°
2026-04-26 00:06 41.52265 -86.51739 10270 ft 312 kts 270°
2026-04-26 00:06 41.52243 -86.54597 10108 ft 302 kts 271°
2026-04-26 00:07 41.52221 -86.57353 9981 ft 293 kts 271°
2026-04-26 00:07 41.52201 -86.60051 9987 ft 296 kts 271°
2026-04-26 00:07 41.52181 -86.62829 9948 ft 297 kts 271°
2026-04-26 00:07 41.52158 -86.65568 9969 ft 299 kts 270°
2026-04-26 00:08 41.52135 -86.68353 9990 ft 300 kts 270°
2026-04-26 00:08 41.52111 -86.71122 9976 ft 299 kts 270°
2026-04-26 00:08 41.52085 -86.73920 9956 ft 299 kts 270°
2026-04-26 00:08 41.52059 -86.76653 9952 ft 299 kts 270°
2026-04-26 00:09 41.52032 -86.79434 9977 ft 299 kts 270°
2026-04-26 00:09 41.52005 -86.82196 9979 ft 299 kts 270°
2026-04-26 00:09 41.51976 -86.84975 9946 ft 300 kts 270°
2026-04-26 00:09 41.51948 -86.87745 9789 ft 302 kts 270°
2026-04-26 00:10 41.51918 -86.90569 9381 ft 302 kts 270°
2026-04-26 00:10 41.51888 -86.93318 9017 ft 300 kts 270°
2026-04-26 00:10 41.51856 -86.96112 8622 ft 297 kts 270°
2026-04-26 00:10 41.51825 -86.98827 8296 ft 294 kts 270°
2026-04-26 00:11 41.51793 -87.01535 7972 ft 291 kts 270°
2026-04-26 00:11 41.51762 -87.04215 7635 ft 288 kts 270°
2026-04-26 00:11 41.51730 -87.06857 7308 ft 286 kts 270°
2026-04-26 00:11 41.51696 -87.09522 6983 ft 284 kts 270°
2026-04-26 00:12 41.51664 -87.12129 6672 ft 282 kts 270°
2026-04-26 00:12 41.51632 -87.14720 6344 ft 281 kts 271°
2026-04-26 00:12 41.51691 -87.17369 5801 ft 287 kts 276°
2026-04-26 00:12 41.51832 -87.19965 5759 ft 283 kts 276°
2026-04-26 00:13 41.51984 -87.22613 5791 ft 285 kts 276°
2026-04-26 00:13 41.52136 -87.25266 5845 ft 285 kts 276°
2026-04-26 00:13 41.52285 -87.27890 5892 ft 284 kts 276°
2026-04-26 00:13 41.52428 -87.30495 5915 ft 284 kts 276°
2026-04-26 00:14 41.52573 -87.33113 5943 ft 284 kts 276°
2026-04-26 00:14 41.52715 -87.35736 5956 ft 282 kts 276°
2026-04-26 00:14 41.52856 -87.38334 5960 ft 281 kts 276°
2026-04-26 00:14 41.52996 -87.40927 5963 ft 282 kts 276°
2026-04-26 00:15 41.53137 -87.43551 5969 ft 282 kts 276°
2026-04-26 00:15 41.53275 -87.46145 5966 ft 281 kts 276°
2026-04-26 00:15 41.53412 -87.48730 5965 ft 282 kts 276°
2026-04-26 00:15 41.53550 -87.51338 5966 ft 282 kts 276°
2026-04-26 00:16 41.53688 -87.53953 5964 ft 282 kts 276°
2026-04-26 00:16 41.53825 -87.56580 5916 ft 283 kts 276°
2026-04-26 00:16 41.53961 -87.59170 5550 ft 283 kts 276°
2026-04-26 00:16 41.54179 -87.61775 5175 ft 280 kts 288°
2026-04-26 00:17 41.55048 -87.64027 4835 ft 271 kts 315°
2026-04-26 00:17 41.56483 -87.65554 4514 ft 261 kts 335°
2026-04-26 00:17 41.58069 -87.66715 4185 ft 259 kts 329°
2026-04-26 00:17 41.59432 -87.68259 4004 ft 254 kts 320°
2026-04-26 00:18 41.60658 -87.69848 3988 ft 239 kts 319°
2026-04-26 00:18 41.61805 -87.71392 3988 ft 227 kts 319°
2026-04-26 00:18 41.62901 -87.72897 3993 ft 228 kts 318°
2026-04-26 00:18 41.63999 -87.74420 3996 ft 228 kts 318°
2026-04-26 00:19 41.65114 -87.75979 3720 ft 231 kts 317°
2026-04-26 00:19 41.66211 -87.77522 3440 ft 229 kts 317°
2026-04-26 00:19 41.67307 -87.79066 3179 ft 227 kts 318°
2026-04-26 00:19 41.68378 -87.80574 2904 ft 225 kts 319°
2026-04-26 00:20 41.69589 -87.81794 2564 ft 210 kts 340°
2026-04-26 00:20 41.70915 -87.82275 2315 ft 184 kts 360°
2026-04-26 00:20 41.72108 -87.82174 2138 ft 161 kts 15°
2026-04-26 00:20 41.73095 -87.81704 1902 ft 141 kts 30°
2026-04-26 00:21 41.73844 -87.80994 1726 ft 127 kts 38°
2026-04-26 00:21 41.74511 -87.80244 1582 ft 126 kts 42°
2026-04-26 00:21 41.75153 -87.79439 1413 ft 125 kts 43°
2026-04-26 00:21 41.75784 -87.78629 1248 ft 125 kts 43°
2026-04-26 00:22 41.76416 -87.77830 1075 ft 124 kts 43°
2026-04-26 00:22 41.77040 -87.77038 917 ft 124 kts 43°
2026-04-26 00:22 41.77660 -87.76247 719 ft 123 kts 43°
2026-04-26 00:22 41.78276 -87.75470 617 ft 113 kts 43°
2026-04-26 00:23 41.78636 -87.75024 614 ft 32 kts 44°
2026-04-26 00:23 41.78762 -87.74841 613 ft 19 kts 77°
2026-04-26 00:23 41.78702 -87.74762 613 ft 13 kts 181°
2026-04-26 00:23 41.78611 -87.74770 614 ft 11 kts 194°
2026-04-26 00:24 41.78556 -87.74721 614 ft 9 kts 115°
2026-04-26 00:24 41.78571 -87.74644 614 ft 9 kts 39°
2026-04-26 00:24 41.78599 -87.74618 614 ft 0 kts 34°